Weather History for MMZC - March, 2013

Change the Weather History Date:

Thursday, March 21, 2013

  Actual Average Record
Temperature  
Mean Temperature 63 °F -  
Max Temperature 82 °F 74 °F 82 °F (2011)
Min Temperature 44 °F 39 °F 26 °F (2003)
Degree Days  
Heating Degree Days 2    
Growing Degree Days 13 (Base 50)    
Moisture  
Dew Point 20 °F    
Average Humidity 20    
Maximum Humidity 37    
Minimum Humidity 11    
Precipitation  
Precipitation 0.00 in - - ()
Sea Level Pressure  
Sea Level Pressure 30.13 in    
Wind  
Wind Speed 11 mph ()    
Max Wind Speed 23 mph    
Max Gust Speed -    
Visibility 10.0 miles    
Events      
Averages and records for this station are not official NWS values.
T = Trace of Precipitation, MM = Missing Value Source: Averaged Metar Reports

Daily Weather History Graph

Daily Weather History Graph

Search for Another Location

Airport or City:

Trip Planner

Search our weather history database for the weather conditions in past years. The results will help you decide how hot, cold, wet, or windy it might be!

Date:

Astronomy

Mar. 21, 2013 Rise Set
Actual Time 6:53 AM CST 7:02 PM CST
Civil Twilight 6:31 AM CST 7:24 PM CST
Nautical Twilight 6:04 AM CST 7:50 PM CST
Astronomical Twilight 5:38 AM CST 8:17 PM CST
Moon 2:06 PM CST (3/21) 2:43 AM CST (3/21)
Length of Visible Light 12h 53m
Length of Day
12h 08m
Waxing Gibbous, 69% of the Moon is Illuminated
Mar 21
Waxing Gibbous
Mar 27
Full
Apr 2
Last Quarter
Apr 10
New
Apr 18
First Quarter

Hourly Weather History & Observations

Time (CST) Temp. Windchill Dew Point Humidity Pressure Visibility Wind Dir Wind Speed Gust Speed Precip Events Conditions
12:49 AM 53.6 °F - 19.4 °F 26% 30.18 in 10.0 mi South 11.5 mph - N/A   Clear
1:40 AM 51.8 °F - 19.4 °F 28% 30.17 in 10.0 mi SW 5.8 mph - N/A   Clear
2:40 AM 48.2 °F - 17.6 °F 30% 30.16 in 10.0 mi SW 4.6 mph - N/A   Clear
3:44 AM 46.4 °F 42.9 °F 17.6 °F 32% 30.15 in 10.0 mi South 6.9 mph - N/A   Clear
4:40 AM 48.2 °F - 19.4 °F 32% 30.15 in 10.0 mi WSW 3.5 mph - N/A   Clear
5:50 AM 44.6 °F 40.2 °F 19.4 °F 37% 30.15 in 10.0 mi South 8.1 mph - N/A   Clear
6:51 AM 51.8 °F - 23.0 °F 33% 30.17 in 10.0 mi SSW 12.7 mph - N/A   Clear
7:43 AM 53.6 °F - 24.8 °F 33% 30.18 in 10.0 mi South 9.2 mph - N/A   Clear
8:42 AM 62.6 °F - 28.4 °F 27% 30.20 in 10.0 mi South 13.8 mph - N/A   Clear
9:42 AM 69.8 °F - 21.2 °F 16% 30.20 in 10.0 mi South 11.5 mph - N/A   Clear
10:41 AM 75.2 °F - 19.4 °F 12% 30.18 in 10.0 mi WSW 17.3 mph - N/A   Clear
11:42 AM 78.8 °F - 19.4 °F 11% 30.16 in 10.0 mi WSW 17.3 mph - N/A   Clear
12:42 PM 78.8 °F - 21.2 °F 12% 30.14 in 10.0 mi WSW 17.3 mph - N/A   Clear
1:40 PM 80.6 °F - 21.2 °F 11% 30.10 in 10.0 mi SW 23.0 mph - N/A   Clear
2:58 PM 82.4 °F - 23.0 °F 11% 30.04 in 10.0 mi SW 20.7 mph - N/A   Clear
3:47 PM 82.4 °F - 23.0 °F 11% 30.03 in 10.0 mi WNW 20.7 mph - N/A   Clear
4:58 PM 80.6 °F - 21.2 °F 11% 30.03 in 10.0 mi West 21.9 mph - N/A   Clear
5:56 PM 77.0 °F - 19.4 °F 12% 30.04 in 10.0 mi West 21.9 mph - N/A   Clear
6:41 PM 73.4 °F - 17.6 °F 12% 30.06 in 10.0 mi West 23.0 mph - N/A   Clear
7:44 PM 66.2 °F - 12.2 °F 12% 30.09 in 10.0 mi WSW 16.1 mph - N/A   Clear
8:46 PM 62.6 °F - 10.4 °F 13% 30.12 in 10.0 mi SW 15.0 mph - N/A   Clear
9:53 PM 60.8 °F - 14.0 °F 16% 30.14 in 10.0 mi SW 13.8 mph - N/A   Clear
11:40 PM 55.4 °F - 17.6 °F 23% 30.14 in 10.0 mi SSW 10.4 mph - N/A   Clear